F3825 Weather Reports


time (UTC)temp
C
wind
direction
speed
KPH
gust
KPH
rain 1hr
cm
rain 24hr
cm
rain mn
cm
humidity
%
barometer
mb
20260505064233 21 17 3.2 22.5 0.00 0.00 0.00 82 1005.6
20260505063254 21 37 4.8 20.9 0.00 0.00 0.00 82 1005.9
20260505061111 21 5 3.2 19.3 0.00 0.00 0.00 82 1006.0
20260505060120 21 34 3.2 19.3 0.00 0.00 0.00 82 1006.0
20260505055050 21 36 3.2 25.7 0.00 0.00 0.00 82 1006.0
20260505054113 21 35 3.2 25.7 0.00 0.00 0.00 82 1005.9
20260505053102 21 5 1.6 17.7 0.00 0.00 0.00 82 1006.0
20260505052052 21 30 3.2 17.7 0.00 0.00 0.00 82 1005.9
20260505051104 21 344 3.2 14.5 0.00 0.00 0.00 82 1005.8
20260505040859 21 24 1.6 12.9 0.00 0.00 0.00 81 1006.0
20260505035909 21 55 0.0 12.9 0.00 0.00 0.00 80 1006.0
20260505032615 22 326 0.0 6.4 0.00 0.00 0.00 78 1005.8
20260505031636 22 323 0.0 6.4 0.00 0.00 0.00 77 1005.8
20260505030623 22 323 0.0 6.4 0.00 0.00 0.00 77 1006.0
20260505025619 22 24 0.0 4.8 0.00 0.00 0.00 76 1005.9
20260505024638 23 57 0.0 4.8 0.00 0.00 0.00 75 1005.8
20260505023628 23 5 0.0 8.0 0.00 0.00 0.00 75 1005.9
20260505022607 23 355 0.0 4.8 0.00 0.00 0.00 74 1005.7
20260505021618 23 355 0.0 6.4 0.00 0.00 0.00 73 1005.7
20260505020547 23 0 0.0 8.0 0.00 0.00 0.00 73 1005.7
20260505015514 23 15 0.0 8.0 0.00 0.00 0.00 72 1005.7
20260505014454 23 9 0.0 6.4 0.00 0.00 0.00 71 1005.7
20260505013504 23 355 0.0 6.4 0.00 0.00 0.00 71 1005.8
20260505010252 25 29 0.0 12.9 0.00 0.00 0.00 67 1005.5
20260505005255 25 0 1.6 20.9 0.00 0.00 0.00 65 1005.4
20260505004222 25 39 3.2 20.9 0.00 0.00 0.00 65 1005.4
20260505003221 25 5 1.6 16.1 0.00 0.00 0.00 64 1005.4
20260505002203 26 11 3.2 22.5 0.00 0.00 0.00 63 1005.3
20260505001150 26 61 3.2 22.5 0.00 0.00 0.00 62 1005.2
20260505000213 26 26 3.2 19.3 0.00 0.00 0.00 62 1005.4
20260504235204 26 5 3.2 19.3 0.00 0.00 0.00 61 1005.5
20260504234215 26 26 3.2 19.3 0.00 0.00 0.00 61 1005.8
20260504233206 26 273 3.2 17.7 0.00 0.00 0.00 61 1005.9
20260504232133 26 5 3.2 27.4 0.00 0.00 0.00 61 1005.9
20260504231143 27 40 8.0 27.4 0.00 0.00 0.00 59 1005.9
20260504223809 27 37 6.4 24.1 0.00 0.00 0.00 59 1006.3
20260504222758 27 90 4.8 24.1 0.00 0.00 0.00 58 1006.2
20260504221809 27 30 4.8 22.5 0.00 0.00 0.00 60 1006.4
20260504220758 27 94 4.8 22.5 0.00 0.00 0.00 60 1006.4
20260504215749 27 19 3.2 16.1 0.00 0.00 0.00 59 1006.5
20260504214723 27 10 3.2 19.3 0.00 0.00 0.00 59 1006.5
20260504213709 27 355 3.2 25.7 0.00 0.00 0.00 61 1006.7
20260504212731 27 342 4.8 25.7 0.00 0.00 0.00 59 1007.0
20260504211702 27 318 3.2 14.5 0.00 0.00 0.00 58 1007.1
20260504210721 27 70 3.2 19.3 0.00 0.00 0.00 60 1007.3
20260504205738 27 39 3.2 19.3 0.00 0.00 0.00 61 1007.5
20260504204706 26 14 4.8 19.3 0.00 0.00 0.00 61 1007.6
20260504202558 27 101 3.2 25.7 0.00 0.00 0.00 60 1007.9
20260504200436 27 27 6.4 22.5 0.00 0.00 0.00 60 1008.3
20260504195437 27 13 4.8 22.5 0.00 0.00 0.00 59 1008.8
20260504193324 27 350 6.4 30.6 0.00 0.00 0.00 61 1008.9
20260504192304 26 19 4.8 30.6 0.00 0.00 0.00 63 1009.1
20260504191231 25 355 6.4 22.5 0.00 0.00 0.00 61 1009.2
20260504190214 26 38 6.4 22.5 0.00 0.00 0.00 64 1009.4
20260504185228 26 349 4.8 22.5 0.00 0.00 0.00 64 1009.4
20260504182035 25 18 8.0 25.7 0.00 0.00 0.00 64 1010.0
20260504175905 23 22 6.4 24.1 0.00 0.00 0.00 68 1010.3
20260504174908 23 56 6.4 24.1 0.00 0.00 0.00 66 1010.4
20260504160313 22 36 8.0 22.5 0.00 0.00 0.00 70 1011.5
20260504140650 18 345 0.0 14.5 0.00 0.00 0.00 74 1012.1
20260504130355 16 30 0.0 9.7 0.00 0.00 0.00 79 1012.1
20260504080812 16 355 0.0 0.0 0.00 0.00 0.00 76 1012.3